COSMOS 2204 (GLONASS)

Satellite information

Favourite Embed

Satellite Type and Status

PAYLOADIN ORBIT

Key statistics

Satellite COSMOS 2204 (GLONASS) at a glance.

Uptime

12090

Days in orbit

Revolutions

≈ 2.1

Per day

Orbit

MEO

Medium Earth Orbit

Inclination

64.3

Latest

Satellite identification and parameters

Extended collection of information and parameters for COSMOS 2204 (GLONASS).

Object identification

Identified? True

Debris? False

Object name: COSMOS 2204 (GLONASS)

International designator: 1992-047B

Object number (NORAD): 22057

Object ID (CCSDS): 22057

Country: COMMONWEALTH OF INDEPENDENT STATES (CIS)

Current information (Y/N): Y

RCS size: LARGE

Orbital parameters

Period: 675.73 minutes

Inclination: 64.3469 deg

SMA: 25507.943 km

Apoapsis: 19168.34 km

Periapsis: 19091.277 km

RAAN: 312.4435 deg

Eccentricy: 0.00151057

Argument of periapsis: 340.2802 deg

Mean anomaly: 18.3451 deg

Mean motion: 2.1310302 rev/day

Mean motion (dot): -0.0000003 rev/day2

B* drag term: 0.0 1/REarth

Two-line elements (TLE)

Creation date: Sept. 2, 2025, 11:42 p.m.

Reference frame: TEME

Reference center: EARTH

Epoch: Sept. 2, 2025, 8:26 a.m. UTC

TLE line 0: 0 COSMOS 2204 (GLONASS)

TLE line 1: 1 22057U 92047B 25245.35144550 -.00000030 00000-0 00000-0 0 9997

TLE line 2: 2 22057 64.3469 312.4435 0015106 340.2802 18.3451 2.13103020257394

Live tracking on map

Real-time ground track for satellite COSMOS 2204 (GLONASS).

In-orbit conjunctions

There are no conjunctions computed for COSMOS 2204 (GLONASS), at the moment. Check back to stay up to date, as we update our databases every day.

Go to all conjunctions

Associated space launch

GLONASS navigation satellites

COSMOS 2204 (GLONASS) was lifted into orbit during the mission ‘Proton | Uragan 48 to 50’, on board a Proton space rocket.

The launch took place on July 30, 1992, 1:59 a.m. from 81/23 (81L).

For more information about the launch, click the button.

Launch to space Proton | Uragan 48 to 50
Proton | Uragan 48 to 50

Agency: N/A

Status: Launch Successful

Launch date: July 30, 1992, 1:59 a.m. UTC

Rocket: Proton

Launch pad: 81/23 (81L)

Location: Baikonur Cosmodrome, Republic of Kazakhstan

...

Latest news about this satellite

There are no fresh news available about this satellite. Check back as we update our databases every day.


Newsletter sign-up

Weekly statistics, charts and insights to help you stay on top of the space industry.